EIN4RN EIDW-LIMC

Flight info

Callsign EIN4RN
Flight time 2h 17m
Altitude 39000
Route PESIT2J PESIT DCT BAKUR DCT GUBJE DCT DAVAZ DCT AVZAC DCT ICOSA DCT RUHUN DCT UNZIB DCT NUCHU L18 MID UL612 OGULO DCT OKASI/N0459F350 DCT OKEKO DCT MOU DCT MADIV DCT MOKIP DCT TUFTA DCT GEVEA DCT MOBLO/N0448F290 DCT LURAG/N0386F190 M135 ASTIG
Aircraft A20N/M-SDE2E3FGHIRWXY/LB1

Departure

Time 2026-05-01 11:04
Airport Dublin Airport (EIDW)

Arrival

Time 2026-05-01 13:22
Airport Milan Malpensa International Airport (LIMC)
Time Latitude Longitude Altitude Speed Heading
2026-05-01 10:41 53.42190 -6.23679 207 ft 0 kts 27°
2026-05-01 10:49 53.42189 -6.23679 207 ft 0 kts 27°
2026-05-01 10:52 53.42175 -6.23686 207 ft 2 kts 356°
2026-05-01 10:52 53.42160 -6.23680 207 ft 2 kts 330°
2026-05-01 10:52 53.42149 -6.23663 206 ft 2 kts 304°
2026-05-01 10:52 53.42145 -6.23651 206 ft 0 kts 290°
2026-05-01 10:55 53.42146 -6.23655 206 ft 1 kts 290°
2026-05-01 10:55 53.42152 -6.23682 207 ft 3 kts 295°
2026-05-01 10:55 53.42166 -6.23726 207 ft 5 kts 300°
2026-05-01 10:55 53.42186 -6.23786 208 ft 6 kts 299°
2026-05-01 10:56 53.42211 -6.23862 210 ft 8 kts 298°
2026-05-01 10:56 53.42238 -6.23953 211 ft 9 kts 297°
2026-05-01 10:56 53.42269 -6.24054 213 ft 10 kts 293°
2026-05-01 10:56 53.42267 -6.24183 214 ft 12 kts 241°
2026-05-01 10:57 53.42213 -6.24320 213 ft 15 kts 246°
2026-05-01 10:57 53.42194 -6.24508 214 ft 17 kts 271°
2026-05-01 10:57 53.42213 -6.24714 214 ft 18 kts 296°
2026-05-01 10:57 53.42321 -6.24836 215 ft 20 kts 338°
2026-05-01 10:58 53.42451 -6.24936 216 ft 21 kts 338°
2026-05-01 10:58 53.42592 -6.25038 215 ft 22 kts 341°
2026-05-01 10:58 53.42746 -6.25124 215 ft 24 kts 348°
2026-05-01 10:58 53.42908 -6.25223 214 ft 25 kts 337°
2026-05-01 10:59 53.43073 -6.25341 214 ft 26 kts 336°
2026-05-01 10:59 53.43208 -6.25523 215 ft 25 kts 312°
2026-05-01 10:59 53.43365 -6.25626 216 ft 24 kts 26°
2026-05-01 10:59 53.43394 -6.25363 214 ft 25 kts 95°
2026-05-01 11:00 53.43380 -6.25118 213 ft 11 kts 99°
2026-05-01 11:00 53.43375 -6.24974 213 ft 13 kts 93°
2026-05-01 11:00 53.43368 -6.24803 214 ft 15 kts 96°
2026-05-01 11:00 53.43367 -6.24618 216 ft 16 kts 63°
2026-05-01 11:01 53.43397 -6.24575 217 ft 1 kts 26°
2026-05-01 11:01 53.43409 -6.24569 216 ft 1 kts 12°
2026-05-01 11:02 53.43425 -6.24564 216 ft 4 kts
2026-05-01 11:02 53.43478 -6.24548 216 ft 11 kts 355°
2026-05-01 11:02 53.43531 -6.24639 215 ft 11 kts 279°
2026-05-01 11:03 53.43534 -6.24689 214 ft 0 kts 277°
2026-05-01 11:03 53.43541 -6.24845 213 ft 45 kts 274°
2026-05-01 11:03 53.43577 -6.25720 217 ft 95 kts 275°
2026-05-01 11:03 53.43640 -6.27068 236 ft 135 kts 275°
2026-05-01 11:04 53.43729 -6.28821 467 ft 163 kts 279°
2026-05-01 11:04 53.44091 -6.30692 946 ft 182 kts 294°
2026-05-01 11:04 53.44750 -6.32606 1509 ft 199 kts 303°
2026-05-01 11:04 53.45558 -6.34656 2018 ft 222 kts 298°
2026-05-01 11:05 53.46293 -6.37020 2613 ft 233 kts 291°
2026-05-01 11:05 53.47019 -6.39497 3138 ft 251 kts 306°
2026-05-01 11:05 53.48323 -6.41611 3647 ft 269 kts 319°
2026-05-01 11:05 53.49715 -6.43706 4342 ft 276 kts 313°
2026-05-01 11:06 53.50905 -6.46211 5093 ft 276 kts 291°
2026-05-01 11:06 53.51197 -6.49309 5841 ft 269 kts 256°
2026-05-01 11:06 53.50471 -6.52101 6621 ft 261 kts 227°
2026-05-01 11:07 53.47416 -6.54660 8186 ft 255 kts 180°
2026-05-01 11:07 53.45670 -6.54111 8783 ft 257 kts 162°
2026-05-01 11:07 53.43991 -6.53084 9075 ft 257 kts 162°
2026-05-01 11:07 53.42314 -6.52076 9101 ft 257 kts 162°
2026-05-01 11:08 53.40640 -6.51076 9104 ft 256 kts 162°
2026-05-01 11:08 53.38942 -6.50064 9106 ft 256 kts 162°
2026-05-01 11:08 53.35585 -6.48066 9107 ft 256 kts 162°
2026-05-01 11:09 53.33894 -6.47061 9108 ft 256 kts 162°
2026-05-01 11:09 53.32232 -6.46072 9112 ft 257 kts 162°
2026-05-01 11:09 53.30553 -6.44926 9411 ft 266 kts 158°
2026-05-01 11:10 53.27208 -6.42335 10928 ft 270 kts 158°
2026-05-01 11:10 53.25468 -6.40996 11253 ft 287 kts 157°
2026-05-01 11:10 53.23609 -6.39562 11558 ft 304 kts 157°
2026-05-01 11:10 53.21620 -6.38023 11854 ft 321 kts 157°
2026-05-01 11:11 53.19560 -6.36430 12136 ft 336 kts 157°
2026-05-01 11:11 53.17406 -6.34763 12581 ft 346 kts 156°
2026-05-01 11:11 53.15224 -6.33077 13213 ft 349 kts 156°
2026-05-01 11:11 53.13018 -6.31375 13891 ft 351 kts 156°
2026-05-01 11:12 53.10792 -6.29659 14475 ft 355 kts 157°
2026-05-01 11:12 53.08573 -6.27951 15107 ft 357 kts 157°
2026-05-01 11:12 53.06318 -6.26217 15740 ft 360 kts 157°
2026-05-01 11:12 53.04032 -6.24464 16298 ft 363 kts 157°
2026-05-01 11:13 53.01730 -6.22701 16869 ft 366 kts 157°
2026-05-01 11:13 52.99433 -6.20943 17411 ft 369 kts 157°
2026-05-01 11:13 52.97085 -6.19150 17968 ft 371 kts 157°
2026-05-01 11:13 52.94732 -6.17353 18471 ft 374 kts 157°
2026-05-01 11:14 52.92397 -6.15561 18997 ft 376 kts 156°
2026-05-01 11:14 52.90024 -6.13736 19476 ft 379 kts 156°
2026-05-01 11:14 52.87600 -6.11873 19721 ft 389 kts 156°
2026-05-01 11:14 52.85132 -6.09976 20079 ft 394 kts 156°
2026-05-01 11:15 52.82648 -6.08069 20560 ft 396 kts 156°
2026-05-01 11:15 52.80150 -6.06155 21030 ft 398 kts 156°
2026-05-01 11:15 52.77648 -6.04241 21475 ft 400 kts 156°
2026-05-01 11:15 52.75121 -6.02310 21893 ft 403 kts 156°
2026-05-01 11:16 52.72545 -6.00344 22312 ft 406 kts 157°
2026-05-01 11:16 52.70013 -5.98415 22708 ft 408 kts 157°
2026-05-01 11:16 52.67406 -5.96434 23055 ft 410 kts 156°
2026-05-01 11:16 52.64822 -5.94470 23115 ft 410 kts 157°
2026-05-01 11:17 52.62237 -5.92509 23120 ft 410 kts 157°
2026-05-01 11:17 52.59655 -5.90554 23123 ft 410 kts 156°
2026-05-01 11:17 52.57075 -5.88602 23125 ft 410 kts 156°
2026-05-01 11:17 52.54497 -5.86652 23129 ft 410 kts 156°
2026-05-01 11:18 52.51920 -5.84707 23129 ft 410 kts 156°
2026-05-01 11:18 52.49327 -5.82751 23128 ft 411 kts 156°
2026-05-01 11:18 52.46742 -5.80805 23128 ft 411 kts 156°
2026-05-01 11:18 52.44148 -5.78856 23130 ft 412 kts 156°
2026-05-01 11:19 52.41534 -5.76969 23129 ft 411 kts 159°
2026-05-01 11:19 52.38875 -5.75309 23131 ft 411 kts 161°
2026-05-01 11:19 52.36151 -5.73871 23286 ft 415 kts 164°
2026-05-01 11:19 52.33395 -5.72546 23739 ft 415 kts 164°
2026-05-01 11:20 52.30614 -5.71180 24156 ft 416 kts 163°
2026-05-01 11:20 52.27849 -5.69824 24492 ft 419 kts 163°
2026-05-01 11:20 52.25068 -5.68398 24812 ft 421 kts 162°
2026-05-01 11:20 52.22319 -5.66755 25133 ft 423 kts 159°
2026-05-01 11:21 52.19599 -5.64915 25471 ft 425 kts 158°
2026-05-01 11:21 52.16883 -5.63087 25761 ft 427 kts 158°
2026-05-01 11:21 52.14133 -5.61248 26040 ft 428 kts 158°
2026-05-01 11:21 52.11385 -5.59409 26300 ft 430 kts 158°
2026-05-01 11:22 52.08630 -5.57563 26575 ft 431 kts 158°
2026-05-01 11:22 52.05879 -5.55719 26934 ft 430 kts 158°
2026-05-01 11:22 52.03130 -5.53861 27288 ft 429 kts 158°
2026-05-01 11:22 52.00413 -5.51917 27632 ft 428 kts 157°
2026-05-01 11:23 51.97707 -5.49949 27966 ft 427 kts 156°
2026-05-01 11:23 51.95010 -5.47992 28291 ft 427 kts 157°
2026-05-01 11:23 51.92336 -5.45922 28600 ft 427 kts 151°
2026-05-01 11:23 51.89908 -5.43139 28880 ft 430 kts 141°
2026-05-01 11:24 51.87824 -5.39652 29187 ft 434 kts 131°
2026-05-01 11:24 51.86155 -5.35581 29502 ft 438 kts 121°
2026-05-01 11:24 51.83529 -5.26703 30193 ft 438 kts 119°
2026-05-01 11:25 51.82264 -5.22305 30479 ft 438 kts 119°
2026-05-01 11:25 51.79744 -5.13343 31058 ft 439 kts 116°
2026-05-01 11:25 51.78647 -5.08753 31328 ft 440 kts 114°
2026-05-01 11:26 51.77692 -5.04057 31598 ft 442 kts 111°
2026-05-01 11:26 51.76244 -4.94484 32157 ft 444 kts 105°
2026-05-01 11:26 51.75663 -4.89609 32455 ft 443 kts 105°
2026-05-01 11:27 51.75087 -4.84754 32725 ft 442 kts 105°
2026-05-01 11:27 51.74508 -4.79893 32970 ft 441 kts 105°
2026-05-01 11:27 51.73928 -4.75047 33210 ft 441 kts 105°
2026-05-01 11:27 51.73354 -4.70259 33436 ft 441 kts 105°
2026-05-01 11:28 51.72768 -4.65411 33665 ft 440 kts 105°
2026-05-01 11:28 51.72182 -4.60574 33894 ft 439 kts 105°
2026-05-01 11:28 51.71603 -4.55813 34094 ft 439 kts 105°
2026-05-01 11:29 51.70424 -4.46174 34478 ft 439 kts 105°
2026-05-01 11:29 51.69832 -4.41365 34645 ft 438 kts 105°
2026-05-01 11:29 51.68648 -4.31786 34947 ft 438 kts 105°
2026-05-01 11:30 51.68049 -4.26960 35089 ft 438 kts 105°
2026-05-01 11:30 51.67453 -4.22177 35230 ft 438 kts 105°
2026-05-01 11:30 51.66850 -4.17353 35362 ft 439 kts 105°
2026-05-01 11:30 51.66254 -4.12605 35491 ft 439 kts 105°
2026-05-01 11:31 51.65645 -4.07774 35619 ft 439 kts 105°
2026-05-01 11:31 51.65041 -4.02982 35735 ft 439 kts 105°
2026-05-01 11:31 51.64437 -3.98222 35844 ft 439 kts 105°
2026-05-01 11:31 51.63821 -3.93393 35946 ft 440 kts 105°
2026-05-01 11:32 51.63205 -3.88582 36059 ft 440 kts 105°
2026-05-01 11:32 51.62589 -3.83771 36177 ft 440 kts 105°
2026-05-01 11:32 51.61977 -3.79017 36303 ft 439 kts 105°
2026-05-01 11:32 51.61358 -3.74228 36421 ft 439 kts 105°
2026-05-01 11:33 51.60739 -3.69467 36551 ft 439 kts 105°
2026-05-01 11:33 51.60110 -3.64635 36669 ft 439 kts 104°
2026-05-01 11:33 51.59566 -3.59871 36776 ft 440 kts 102°
2026-05-01 11:33 51.59173 -3.54987 36878 ft 442 kts 98°
2026-05-01 11:34 51.58881 -3.50095 36987 ft 443 kts 98°
2026-05-01 11:34 51.58598 -3.45191 37088 ft 443 kts 98°
2026-05-01 11:34 51.58311 -3.40239 37187 ft 443 kts 98°
2026-05-01 11:35 51.57735 -3.30435 37383 ft 444 kts 99°
2026-05-01 11:35 51.57441 -3.25499 37498 ft 443 kts 99°
2026-05-01 11:35 51.57147 -3.20607 37615 ft 443 kts 98°
2026-05-01 11:36 51.56547 -3.10753 37767 ft 444 kts 98°
2026-05-01 11:36 51.55942 -3.00944 37895 ft 444 kts 98°
2026-05-01 11:37 51.55329 -2.91129 38013 ft 445 kts 98°
2026-05-01 11:37 51.54705 -2.81284 38100 ft 446 kts 98°
2026-05-01 11:38 51.54070 -2.71399 38185 ft 447 kts 98°
2026-05-01 11:38 51.53425 -2.61506 38279 ft 447 kts 98°
2026-05-01 11:39 51.52771 -2.51582 38371 ft 447 kts 98°
2026-05-01 11:39 51.52111 -2.41723 38471 ft 447 kts 98°
2026-05-01 11:40 51.51441 -2.31820 38550 ft 447 kts 99°
2026-05-01 11:40 51.50763 -2.21927 38617 ft 447 kts 99°
2026-05-01 11:41 51.50079 -2.12048 38665 ft 448 kts 99°
2026-05-01 11:41 51.49387 -2.02219 38692 ft 448 kts 99°
2026-05-01 11:42 51.48683 -1.92307 38723 ft 449 kts 99°
2026-05-01 11:42 51.47965 -1.82364 38788 ft 448 kts 99°
2026-05-01 11:43 51.46921 -1.72605 38833 ft 446 kts 105°
2026-05-01 11:43 51.45203 -1.63089 38860 ft 444 kts 111°
2026-05-01 11:44 51.41566 -1.49608 38895 ft 443 kts 117°
2026-05-01 11:44 51.38952 -1.40707 38890 ft 444 kts 117°
2026-05-01 11:45 51.36326 -1.31789 38919 ft 444 kts 118°
2026-05-01 11:45 51.33579 -1.23022 38974 ft 441 kts 122°
2026-05-01 11:46 51.30257 -1.14791 38998 ft 439 kts 129°
2026-05-01 11:46 51.26595 -1.07065 39021 ft 439 kts 129°
2026-05-01 11:47 51.22916 -0.99316 39041 ft 439 kts 129°
2026-05-01 11:47 51.19270 -0.91614 39067 ft 439 kts 129°
2026-05-01 11:48 51.15581 -0.83844 39063 ft 440 kts 129°
2026-05-01 11:48 51.11914 -0.76147 39065 ft 440 kts 129°
2026-05-01 11:49 51.08070 -0.68618 39112 ft 438 kts 134°
2026-05-01 11:49 51.03780 -0.61838 39129 ft 437 kts 140°
2026-05-01 11:50 50.99052 -0.55841 39143 ft 436 kts 146°
2026-05-01 11:50 50.94054 -0.50486 39157 ft 436 kts 147°
2026-05-01 11:51 50.89022 -0.45113 39132 ft 436 kts 147°
2026-05-01 11:51 50.83999 -0.39770 39145 ft 437 kts 147°
2026-05-01 11:52 50.78940 -0.34407 39170 ft 437 kts 147°
2026-05-01 11:52 50.73914 -0.29095 39178 ft 437 kts 147°
2026-05-01 11:53 50.68875 -0.23785 39188 ft 437 kts 147°
2026-05-01 11:53 50.63828 -0.18495 39198 ft 437 kts 147°
2026-05-01 11:54 50.58786 -0.13224 39196 ft 437 kts 147°
2026-05-01 11:54 50.53743 -0.07959 39198 ft 437 kts 147°
2026-05-01 11:55 50.48708 -0.02713 39195 ft 437 kts 147°
2026-05-01 11:55 50.43653 0.02536 39192 ft 437 kts 147°
2026-05-01 11:56 50.38571 0.07796 39196 ft 438 kts 147°
2026-05-01 11:56 50.33503 0.13028 39198 ft 438 kts 147°
2026-05-01 11:57 50.29292 0.17366 39196 ft 438 kts 147°
2026-05-01 11:57 50.23349 0.23476 39195 ft 437 kts 147°
2026-05-01 11:58 50.18302 0.28656 39195 ft 438 kts 147°
2026-05-01 11:59 50.10689 0.36475 39196 ft 438 kts 147°
2026-05-01 11:59 50.05618 0.41668 39198 ft 438 kts 147°
2026-05-01 12:00 49.98007 0.49440 39200 ft 438 kts 147°
2026-05-01 12:01 49.90385 0.57196 39195 ft 438 kts 147°
2026-05-01 12:01 49.85337 0.62503 39194 ft 438 kts 143°
2026-05-01 12:02 49.80568 0.68408 39199 ft 438 kts 142°
2026-05-01 12:02 49.75868 0.74312 39202 ft 438 kts 142°
2026-05-01 12:03 49.71152 0.80226 39198 ft 439 kts 142°
2026-05-01 12:03 49.66401 0.86171 39195 ft 439 kts 142°
2026-05-01 12:04 49.61692 0.92049 39195 ft 439 kts 142°
2026-05-01 12:04 49.56962 0.97939 39197 ft 439 kts 142°
2026-05-01 12:05 49.52219 1.03831 39202 ft 438 kts 142°
2026-05-01 12:05 49.45130 1.12612 39210 ft 438 kts 142°
2026-05-01 12:06 49.40403 1.18445 39207 ft 438 kts 142°
2026-05-01 12:06 49.35672 1.24261 39205 ft 438 kts 142°
2026-05-01 12:07 49.30904 1.30109 39203 ft 438 kts 142°
2026-05-01 12:07 49.26168 1.35909 39201 ft 439 kts 142°
2026-05-01 12:08 49.21421 1.41708 39190 ft 438 kts 142°
2026-05-01 12:08 49.16683 1.47483 39195 ft 438 kts 142°
2026-05-01 12:09 49.11933 1.53254 39187 ft 437 kts 141°
2026-05-01 12:09 49.07167 1.59033 39187 ft 437 kts 141°
2026-05-01 12:10 49.00029 1.67664 39184 ft 437 kts 142°
2026-05-01 12:11 48.92897 1.76255 39189 ft 437 kts 142°
2026-05-01 12:11 48.88131 1.81978 39192 ft 438 kts 142°
2026-05-01 12:12 48.83364 1.87687 39194 ft 438 kts 142°
2026-05-01 12:12 48.78562 1.93421 39212 ft 439 kts 142°
2026-05-01 12:13 48.73782 1.99119 39213 ft 439 kts 142°
2026-05-01 12:13 48.68996 2.04809 39213 ft 439 kts 142°
2026-05-01 12:14 48.64212 2.10485 39219 ft 440 kts 142°
2026-05-01 12:14 48.59401 2.16178 39210 ft 440 kts 142°
2026-05-01 12:15 48.54838 2.22242 39207 ft 441 kts 136°
2026-05-01 12:15 48.50519 2.28798 39207 ft 441 kts 136°
2026-05-01 12:16 48.46207 2.35336 39196 ft 442 kts 136°
2026-05-01 12:16 48.41864 2.41903 39207 ft 442 kts 136°
2026-05-01 12:17 48.37561 2.48394 39201 ft 442 kts 136°
2026-05-01 12:17 48.33168 2.54851 39190 ft 442 kts 139°
2026-05-01 12:18 48.28402 2.60623 39202 ft 441 kts 145°
2026-05-01 12:18 48.23248 2.65541 39223 ft 440 kts 152°
2026-05-01 12:19 48.17891 2.70041 38925 ft 441 kts 152°
2026-05-01 12:19 48.15232 2.72214 38642 ft 438 kts 153°
2026-05-01 12:19 48.12557 2.74374 38348 ft 434 kts 153°
2026-05-01 12:20 48.09934 2.76469 38036 ft 430 kts 154°
2026-05-01 12:20 48.07241 2.78427 37725 ft 428 kts 156°
2026-05-01 12:20 48.04505 2.80187 37430 ft 427 kts 158°
2026-05-01 12:20 48.01801 2.81901 37137 ft 427 kts 157°
2026-05-01 12:21 47.99063 2.83647 36827 ft 427 kts 157°
2026-05-01 12:21 47.96365 2.85369 36537 ft 426 kts 157°
2026-05-01 12:21 47.93632 2.87107 36253 ft 425 kts 157°
2026-05-01 12:21 47.90912 2.88836 36019 ft 425 kts 157°
2026-05-01 12:22 47.88211 2.90549 35810 ft 424 kts 157°
2026-05-01 12:22 47.86403 2.91694 35665 ft 424 kts 158°
2026-05-01 12:22 47.82800 2.93973 35372 ft 423 kts 157°
2026-05-01 12:22 47.80085 2.95689 35152 ft 423 kts 158°
2026-05-01 12:23 47.77404 2.97380 34937 ft 423 kts 158°
2026-05-01 12:23 47.74697 2.99086 34715 ft 422 kts 158°
2026-05-01 12:23 47.71978 3.00798 34490 ft 421 kts 158°
2026-05-01 12:23 47.69313 3.02474 34266 ft 421 kts 158°
2026-05-01 12:24 47.66616 3.04168 34023 ft 422 kts 158°
2026-05-01 12:24 47.63911 3.05863 33777 ft 422 kts 158°
2026-05-01 12:24 47.61234 3.07542 33520 ft 422 kts 158°
2026-05-01 12:24 47.58516 3.09241 33289 ft 423 kts 158°
2026-05-01 12:25 47.55817 3.10925 33045 ft 422 kts 157°
2026-05-01 12:25 47.50396 3.14307 32552 ft 423 kts 158°
2026-05-01 12:25 47.47694 3.15985 32317 ft 423 kts 157°
2026-05-01 12:26 47.44979 3.17671 32069 ft 423 kts 157°
2026-05-01 12:26 47.39577 3.21026 31580 ft 423 kts 157°
2026-05-01 12:26 47.36858 3.22711 31336 ft 424 kts 157°
2026-05-01 12:27 47.34178 3.24369 31095 ft 424 kts 157°
2026-05-01 12:27 47.28737 3.27729 30609 ft 425 kts 157°
2026-05-01 12:28 47.23303 3.31081 30062 ft 425 kts 156°
2026-05-01 12:28 47.20571 3.32766 29781 ft 426 kts 156°
2026-05-01 12:28 47.15099 3.36131 29235 ft 428 kts 157°
2026-05-01 12:29 47.12380 3.37800 28971 ft 429 kts 157°
2026-05-01 12:29 47.09629 3.39486 28706 ft 429 kts 157°
2026-05-01 12:29 47.04124 3.42856 28172 ft 429 kts 157°
2026-05-01 12:30 46.98604 3.46223 27635 ft 431 kts 157°
2026-05-01 12:30 46.95832 3.47913 27357 ft 430 kts 157°
2026-05-01 12:30 46.93116 3.49568 27097 ft 428 kts 157°
2026-05-01 12:31 46.90377 3.51232 26826 ft 425 kts 157°
2026-05-01 12:31 46.87644 3.52894 26556 ft 424 kts 157°
2026-05-01 12:31 46.84929 3.54543 26299 ft 422 kts 157°
2026-05-01 12:31 46.82232 3.56175 26034 ft 420 kts 157°
2026-05-01 12:32 46.79538 3.57807 25765 ft 419 kts 157°
2026-05-01 12:32 46.74195 3.61142 25224 ft 417 kts 151°
2026-05-01 12:32 46.71932 3.63700 24951 ft 419 kts 134°
2026-05-01 12:33 46.70248 3.67188 24678 ft 421 kts 119°
2026-05-01 12:33 46.69285 3.71243 24415 ft 424 kts 107°
2026-05-01 12:33 46.68588 3.75403 24144 ft 423 kts 107°
2026-05-01 12:33 46.67902 3.79508 23881 ft 421 kts 107°
2026-05-01 12:34 46.67204 3.83649 23615 ft 419 kts 107°
2026-05-01 12:34 46.66513 3.87711 23352 ft 417 kts 107°
2026-05-01 12:34 46.65815 3.91802 23086 ft 415 kts 108°
2026-05-01 12:34 46.65124 3.95826 22821 ft 413 kts 107°
2026-05-01 12:35 46.64423 3.99868 22558 ft 411 kts 108°
2026-05-01 12:35 46.63721 4.03915 22291 ft 409 kts 108°
2026-05-01 12:35 46.63027 4.07906 22030 ft 407 kts 107°
2026-05-01 12:35 46.62339 4.11852 21768 ft 406 kts 107°
2026-05-01 12:36 46.61643 4.15838 21507 ft 406 kts 107°
2026-05-01 12:36 46.60949 4.19812 21249 ft 405 kts 107°
2026-05-01 12:36 46.60263 4.23724 20988 ft 403 kts 107°
2026-05-01 12:36 46.59567 4.27689 20727 ft 402 kts 107°
2026-05-01 12:37 46.58880 4.31595 20466 ft 401 kts 107°
2026-05-01 12:37 46.58189 4.35517 20205 ft 400 kts 107°
2026-05-01 12:37 46.57505 4.39388 19947 ft 398 kts 107°
2026-05-01 12:37 46.56821 4.43248 19684 ft 397 kts 107°
2026-05-01 12:38 46.56129 4.47146 19426 ft 396 kts 107°
2026-05-01 12:38 46.55447 4.50983 19172 ft 394 kts 107°
2026-05-01 12:38 46.54765 4.54808 18920 ft 393 kts 107°
2026-05-01 12:38 46.54073 4.58682 18662 ft 392 kts 107°
2026-05-01 12:39 46.53394 4.62477 18414 ft 390 kts 107°
2026-05-01 12:39 46.52708 4.66299 18161 ft 389 kts 107°
2026-05-01 12:39 46.52031 4.70061 17912 ft 388 kts 107°
2026-05-01 12:39 46.51344 4.73881 17667 ft 387 kts 107°
2026-05-01 12:40 46.50666 4.77637 17412 ft 385 kts 107°
2026-05-01 12:40 46.49994 4.81353 17156 ft 384 kts 107°
2026-05-01 12:40 46.49315 4.85096 16891 ft 383 kts 107°
2026-05-01 12:40 46.48640 4.88804 16632 ft 382 kts 107°
2026-05-01 12:41 46.47960 4.92544 16367 ft 381 kts 107°
2026-05-01 12:41 46.47288 4.96229 16097 ft 380 kts 107°
2026-05-01 12:41 46.46621 4.99884 15845 ft 378 kts 107°
2026-05-01 12:41 46.45940 5.03600 15583 ft 377 kts 107°
2026-05-01 12:42 46.45269 5.07256 15341 ft 376 kts 107°
2026-05-01 12:42 46.44601 5.10890 15088 ft 375 kts 106°
2026-05-01 12:42 46.43928 5.14553 14834 ft 374 kts 106°
2026-05-01 12:42 46.43259 5.18182 14582 ft 373 kts 106°
2026-05-01 12:43 46.42592 5.21797 14336 ft 372 kts 106°
2026-05-01 12:43 46.41925 5.25404 14089 ft 371 kts 106°
2026-05-01 12:43 46.41266 5.28970 13857 ft 370 kts 106°
2026-05-01 12:43 46.40597 5.32571 13618 ft 369 kts 106°
2026-05-01 12:44 46.39929 5.36161 13377 ft 368 kts 106°
2026-05-01 12:44 46.39270 5.39699 13150 ft 367 kts 106°
2026-05-01 12:44 46.37947 5.46804 12679 ft 365 kts 105°
2026-05-01 12:45 46.36630 5.53888 12195 ft 363 kts 105°
2026-05-01 12:45 46.35981 5.57361 11957 ft 362 kts 105°
2026-05-01 12:45 46.35326 5.60863 11710 ft 361 kts 105°
2026-05-01 12:46 46.34671 5.64357 11464 ft 359 kts 105°
2026-05-01 12:46 46.34005 5.67897 11222 ft 358 kts 106°
2026-05-01 12:46 46.33712 5.69456 11113 ft 358 kts 106°
2026-05-01 12:46 46.33161 5.72380 10919 ft 354 kts 106°
2026-05-01 12:47 46.32518 5.75784 10625 ft 345 kts 105°
2026-05-01 12:47 46.31902 5.79045 10354 ft 335 kts 105°
2026-05-01 12:47 46.31291 5.82276 10105 ft 325 kts 105°
2026-05-01 12:47 46.30707 5.85356 9963 ft 312 kts 105°
2026-05-01 12:48 46.30143 5.88324 9834 ft 300 kts 105°
2026-05-01 12:48 46.29604 5.91154 9702 ft 288 kts 105°
2026-05-01 12:48 46.29084 5.93888 9576 ft 280 kts 105°
2026-05-01 12:48 46.28559 5.96635 9450 ft 281 kts 105°
2026-05-01 12:49 46.28044 5.99337 9320 ft 281 kts 105°
2026-05-01 12:49 46.27516 6.02092 9209 ft 281 kts 105°
2026-05-01 12:49 46.26995 6.04813 9084 ft 282 kts 105°
2026-05-01 12:49 46.26471 6.07545 8959 ft 281 kts 105°
2026-05-01 12:50 46.25953 6.10243 8837 ft 281 kts 105°
2026-05-01 12:50 46.25244 6.12847 8710 ft 280 kts 120°
2026-05-01 12:50 46.24046 6.15080 8589 ft 280 kts 135°
2026-05-01 12:50 46.22674 6.17018 8466 ft 279 kts 130°
2026-05-01 12:51 46.21671 6.19415 8334 ft 278 kts 113°
2026-05-01 12:51 46.20943 6.21985 8203 ft 277 kts 111°
2026-05-01 12:51 46.19504 6.27150 8238 ft 278 kts 112°
2026-05-01 12:52 46.18751 6.29716 8803 ft 280 kts 112°
2026-05-01 12:52 46.17190 6.34874 10010 ft 286 kts 113°
2026-05-01 12:52 46.16381 6.37500 10265 ft 287 kts 114°
2026-05-01 12:53 46.14749 6.42749 10292 ft 286 kts 114°
2026-05-01 12:53 46.13943 6.45325 10298 ft 286 kts 114°
2026-05-01 12:53 46.13125 6.47935 10300 ft 286 kts 114°
2026-05-01 12:54 46.12304 6.50552 10318 ft 285 kts 114°
2026-05-01 12:54 46.10665 6.55761 10324 ft 285 kts 114°
2026-05-01 12:54 46.10129 6.57461 10326 ft 285 kts 114°
2026-05-01 12:55 46.08213 6.63538 10345 ft 286 kts 114°
2026-05-01 12:55 46.07381 6.66172 10354 ft 287 kts 114°
2026-05-01 12:55 46.06545 6.68814 10359 ft 288 kts 114°
2026-05-01 12:56 46.05717 6.71431 10360 ft 288 kts 114°
2026-05-01 12:56 46.04891 6.74039 10349 ft 287 kts 114°
2026-05-01 12:56 46.04346 6.75759 10345 ft 287 kts 114°
2026-05-01 12:56 46.03231 6.79272 10873 ft 299 kts 115°
2026-05-01 12:57 46.02348 6.82050 11383 ft 312 kts 115°
2026-05-01 12:57 46.00467 6.87957 12407 ft 337 kts 114°
2026-05-01 12:57 45.99477 6.91060 12910 ft 349 kts 114°
2026-05-01 12:58 45.98461 6.94247 13408 ft 359 kts 115°
2026-05-01 12:58 45.97410 6.97538 13909 ft 369 kts 115°
2026-05-01 12:58 45.96328 7.00919 14381 ft 377 kts 115°
2026-05-01 12:59 45.94118 7.07801 15226 ft 383 kts 115°
2026-05-01 12:59 45.92994 7.11291 15351 ft 383 kts 114°
2026-05-01 12:59 45.90773 7.18184 15324 ft 381 kts 114°
2026-05-01 13:00 45.88604 7.24901 15351 ft 381 kts 114°
2026-05-01 13:00 45.87864 7.27189 15342 ft 381 kts 114°
2026-05-01 13:01 45.85264 7.35207 15359 ft 380 kts 114°
2026-05-01 13:01 45.84153 7.38628 15360 ft 380 kts 114°
2026-05-01 13:01 45.81920 7.45485 15354 ft 380 kts 114°
2026-05-01 13:02 45.80793 7.48943 15338 ft 381 kts 114°
2026-05-01 13:07 45.58239 8.17106 9830 ft 280 kts 114°
2026-05-01 13:07 45.57693 8.18730 9733 ft 272 kts 114°
2026-05-01 13:07 45.56628 8.21906 9553 ft 259 kts 114°
2026-05-01 13:08 45.55867 8.24169 9437 ft 249 kts 114°
2026-05-01 13:08 45.55371 8.25644 9340 ft 248 kts 114°
2026-05-01 13:08 45.54626 8.27863 9219 ft 249 kts 114°
2026-05-01 13:08 45.53871 8.30109 8675 ft 257 kts 114°
2026-05-01 13:09 45.53100 8.32404 8055 ft 260 kts 114°
2026-05-01 13:09 45.52313 8.34743 7428 ft 262 kts 114°
2026-05-01 13:09 45.51264 8.37854 6632 ft 260 kts 114°
2026-05-01 13:09 45.50496 8.40125 6024 ft 258 kts 114°
2026-05-01 13:10 45.49719 8.42422 5461 ft 257 kts 114°
2026-05-01 13:10 45.48955 8.44680 5145 ft 253 kts 114°
2026-05-01 13:10 45.48444 8.46186 4949 ft 250 kts 115°
2026-05-01 13:10 45.47475 8.48192 4587 ft 247 kts 135°
2026-05-01 13:11 45.46155 8.49742 4089 ft 244 kts 141°
2026-05-01 13:11 45.44814 8.51124 3860 ft 230 kts 143°
2026-05-01 13:11 45.43166 8.52762 3908 ft 204 kts 143°
2026-05-01 13:11 45.42039 8.53869 3921 ft 190 kts 143°
2026-05-01 13:12 45.41314 8.54579 3939 ft 190 kts 143°
2026-05-01 13:12 45.40396 8.55865 3927 ft 185 kts 113°
2026-05-01 13:12 45.40005 8.57591 3959 ft 184 kts 98°
2026-05-01 13:12 45.39844 8.59399 3970 ft 187 kts 94°
2026-05-01 13:13 45.39736 8.61176 4028 ft 171 kts 93°
2026-05-01 13:13 45.39642 8.62778 3959 ft 156 kts 93°
2026-05-01 13:13 45.39550 8.64319 3958 ft 155 kts 93°
2026-05-01 13:13 45.39423 8.66377 3961 ft 155 kts 94°
2026-05-01 13:14 45.39360 8.67401 3961 ft 155 kts 94°
2026-05-01 13:14 45.39267 8.68942 3962 ft 155 kts 94°
2026-05-01 13:14 45.39173 8.70473 3960 ft 155 kts 94°
2026-05-01 13:14 45.39048 8.72510 3960 ft 155 kts 94°
2026-05-01 13:15 45.38985 8.73527 3961 ft 154 kts 94°
2026-05-01 13:15 45.38894 8.75036 3962 ft 154 kts 94°
2026-05-01 13:15 45.38806 8.76557 3961 ft 154 kts 94°
2026-05-01 13:15 45.38917 8.78541 3938 ft 153 kts 58°
2026-05-01 13:16 45.39426 8.79249 3948 ft 155 kts 28°
2026-05-01 13:16 45.40483 8.79503 3975 ft 158 kts 360°
2026-05-01 13:16 45.41587 8.79306 3967 ft 159 kts 353°
2026-05-01 13:17 45.44853 8.78382 3907 ft 160 kts 351°
2026-05-01 13:17 45.45949 8.78069 3713 ft 159 kts 351°
2026-05-01 13:18 45.48101 8.77468 3323 ft 158 kts 352°
2026-05-01 13:18 45.49172 8.77171 3116 ft 152 kts 352°
2026-05-01 13:18 45.50170 8.76895 2889 ft 145 kts 352°
2026-05-01 13:18 45.51160 8.76623 2703 ft 146 kts 352°
2026-05-01 13:19 45.52171 8.76345 2517 ft 146 kts 351°
2026-05-01 13:19 45.53162 8.76071 2333 ft 146 kts 351°
2026-05-01 13:19 45.55166 8.75518 1958 ft 145 kts 351°
2026-05-01 13:20 45.56163 8.75244 1766 ft 145 kts 350°
2026-05-01 13:20 45.57137 8.74974 1582 ft 143 kts 351°
2026-05-01 13:20 45.58119 8.74669 1386 ft 143 kts 345°
2026-05-01 13:21 45.60066 8.74136 1062 ft 141 kts 351°
2026-05-01 13:21 45.61034 8.73882 863 ft 141 kts 350°
2026-05-01 13:21 45.61989 8.73626 728 ft 140 kts 351°
2026-05-01 13:21 45.62818 8.73396 726 ft 85 kts 347°
2026-05-01 13:22 45.63256 8.73279 735 ft 48 kts 345°
2026-05-01 13:22 45.63472 8.73215 739 ft 13 kts 343°